DW1384 Weather Reports


time (UTC)temp
C
wind
direction
speed
KPH
gust
KPH
rain 1hr
cm
rain 24hr
cm
rain mn
cm
humidity
%
barometer
mb
20260508185159 12 20 0.0 0.0 0.00 0.00 0.00 74 1017.7
20260508184653 13 37 0.0 0.0 0.00 0.00 0.00 74 1017.7
20260508184149 13 37 0.0 0.0 0.00 0.00 0.00 74 1017.7
20260508183643 13 37 0.0 0.0 0.00 0.00 0.00 73 1017.7
20260508183136 13 37 0.0 0.0 0.00 0.00 0.00 73 1017.6
20260508182630 13 37 0.0 0.0 0.00 0.00 0.00 73 1017.6
20260508182123 13 37 0.0 0.0 0.00 0.00 0.00 72 1017.6
20260508181617 13 37 0.0 0.0 0.00 0.00 0.00 72 1017.5
20260508181330 13 45 0.0 0.0 0.00 0.00 0.00 72 1017.5
20260508180605 13 24 0.0 0.0 0.00 0.00 0.00 71 1017.5
20260508180100 13 62 0.0 0.0 0.00 0.00 0.00 71 1017.4
20260508175554 13 55 0.0 0.0 0.00 0.00 0.00 71 1017.4
20260508175047 13 118 0.0 0.0 0.00 0.00 0.00 70 1017.3
20260508174542 14 111 0.0 0.0 0.00 0.00 0.00 70 1017.3
20260508174037 14 37 0.0 0.0 0.00 0.00 0.00 70 1017.2
20260508173529 14 49 0.0 0.0 0.00 0.00 0.00 70 1017.2
20260508173023 14 315 0.0 0.0 0.00 0.00 0.00 69 1017.1
20260508172519 14 22 0.0 0.0 0.00 0.00 0.00 68 1017.2
20260508172012 15 26 0.0 0.0 0.00 0.00 0.00 68 1017.1
20260508171505 15 359 0.0 0.0 0.00 0.00 0.00 68 1017.1
20260508170959 14 332 0.0 0.0 0.00 0.00 0.00 69 1016.8
20260508170454 14 8 0.0 0.0 0.00 0.00 0.00 69 1016.8
20260508165947 14 68 0.0 0.0 0.00 0.00 0.00 68 1017.0
20260508165441 14 8 0.0 0.0 0.00 0.00 0.00 68 1017.1
20260508164937 15 22 0.0 0.0 0.00 0.00 0.00 67 1017.1
20260508164436 15 40 0.0 0.0 0.00 0.00 0.00 67 1017.1
20260508163934 15 34 0.0 0.0 0.00 0.00 0.00 66 1017.0
20260508163651 15 33 0.0 0.0 0.00 0.00 0.00 65 1016.8
20260508162931 15 10 0.0 0.0 0.00 0.00 0.00 64 1016.7
20260508162433 15 14 0.0 0.0 0.00 0.00 0.00 64 1016.7
20260508161932 15 6 0.0 0.0 0.00 0.00 0.00 65 1016.8
20260508161659 15 348 0.0 0.0 0.00 0.00 0.00 64 1016.8
20260508160931 15 22 0.0 0.0 0.00 0.00 0.00 64 1017.0
20260508160431 15 269 0.0 0.0 0.00 0.00 0.00 64 1017.0
20260508155930 15 293 0.0 0.0 0.00 0.00 0.00 63 1017.0
20260508155430 15 294 0.0 0.0 0.00 0.00 0.00 64 1017.1
20260508155421 15 303 0.0 0.0 0.00 0.00 0.00 63 1017.1
20260508154429 15 313 0.0 0.0 0.00 0.00 0.00 63 1017.1
20260508153929 15 315 0.0 0.0 0.00 0.00 0.00 63 1017.1
20260508153430 15 307 0.0 0.0 0.00 0.00 0.00 62 1017.1
20260508152930 15 330 0.0 0.0 0.00 0.00 0.00 61 1017.1
20260508152432 15 343 0.0 0.0 0.00 0.00 0.00 60 1017.1
20260508151931 15 311 0.0 0.0 0.00 0.00 0.00 58 1017.0
20260508151429 15 321 0.0 0.0 0.00 0.00 0.00 58 1017.0
20260508150929 15 313 0.0 0.0 0.00 0.00 0.00 57 1017.1
20260508150444 15 313 0.0 0.0 0.00 0.00 0.00 56 1017.1
20260508145930 15 348 0.0 0.0 0.00 0.00 0.00 56 1017.1
20260508145432 16 343 0.0 0.0 0.00 0.00 0.00 56 1017.1
20260508144930 15 358 0.0 0.0 0.00 0.00 0.00 56 1017.0
20260508144425 16 323 0.0 0.0 0.00 0.00 0.00 55 1017.0
20260508143926 16 357 0.0 0.0 0.00 0.00 0.00 55 1017.0
20260508142350 15 326 0.0 0.0 0.00 0.00 0.00 54 1017.2
20260508141851 15 332 0.0 0.0 0.00 0.00 0.00 54 1017.1
20260508141349 15 285 0.0 0.0 0.00 0.00 0.00 54 1017.1
20260508140902 15 294 0.0 0.0 0.00 0.00 0.00 53 1017.1
20260508140403 15 318 0.0 0.0 0.00 0.00 0.00 52 1017.0
20260508140106 16 306 0.0 0.0 0.00 0.00 0.00 52 1017.1
20260508135350 16 307 0.0 0.0 0.00 0.00 0.00 51 1017.0
20260508134850 16 319 0.0 0.0 0.00 0.00 0.00 52 1017.1
20260508134350 16 150 0.0 0.0 0.00 0.00 0.00 51 1017.1
20260508133849 16 147 0.0 0.0 0.00 0.00 0.00 51 1017.1
20260508133612 16 86 0.0 0.0 0.00 0.00 0.00 50 1016.8
20260508132849 16 85 0.0 0.0 0.00 0.00 0.00 50 1017.0
20260508132348 16 34 0.0 0.0 0.00 0.00 0.00 50 1016.8
20260508131841 17 1 0.0 0.0 0.00 0.00 0.00 49 1017.0
20260508131325 16 1 0.0 0.0 0.00 0.00 0.00 49 1017.1
20260508131049 16 348 0.0 0.0 0.00 0.00 0.00 49 1017.1
20260508130327 17 32 0.0 0.0 0.00 0.00 0.00 50 1017.2
20260508130047 16 353 0.0 0.0 0.00 0.00 0.00 51 1017.2
20260508125326 16 318 0.0 0.0 0.00 0.00 0.00 52 1017.2
20260508124826 16 36 0.0 0.0 0.00 0.00 0.00 53 1017.2
20260508124327 15 40 0.0 0.0 0.00 0.00 0.00 53 1017.3
20260508123826 16 35 0.0 0.0 0.00 0.00 0.00 53 1017.2
20260508123325 15 51 0.0 0.0 0.00 0.00 0.00 52 1017.1
20260508122822 15 54 0.0 0.0 0.00 0.00 0.00 52 1017.1
20260508122322 16 66 0.0 0.0 0.00 0.00 0.00 48 1017.1
20260508121823 17 212 0.0 0.0 0.00 0.00 0.00 48 1017.1
20260508121319 16 157 0.0 0.0 0.00 0.00 0.00 51 1017.1
20260508121041 16 72 0.0 0.0 0.00 0.00 0.00 50 1017.1
20260508120318 16 49 0.0 0.0 0.00 0.00 0.00 51 1017.1
20260508115817 16 343 0.0 0.0 0.00 0.00 0.00 51 1017.1
20260508115319 16 47 0.0 0.0 0.00 0.00 0.00 52 1017.1
20260508114819 16 57 0.0 0.0 0.00 0.00 0.00 51 1017.1
20260508114317 17 26 0.0 0.0 0.00 0.00 0.00 50 1017.2
20260508114039 17 14 0.0 0.0 0.00 0.00 0.00 49 1017.2
20260508112432 17 10 0.0 0.0 0.00 0.00 0.00 48 1017.2
20260508111921 17 348 0.0 0.0 0.00 0.00 0.00 50 1017.2
20260508111413 16 18 0.0 0.0 0.00 0.00 0.00 52 1017.2
20260508111128 15 182 0.0 0.0 0.00 0.00 0.00 51 1017.3
20260508110357 15 165 0.0 0.0 0.00 0.00 0.00 50 1017.3
20260508110107 15 259 0.0 0.0 0.00 0.00 0.00 50 1017.4
20260508105228 15 260 0.0 0.0 0.00 0.00 0.00 50 1017.4
20260508104946 16 284 0.0 0.0 0.00 0.00 0.00 54 1017.4
20260508104221 16 27 0.0 0.0 0.00 0.00 0.00 56 1017.4
20260508103710 15 343 0.0 0.0 0.00 0.00 0.00 58 1017.4
20260508103155 15 228 0.0 0.0 0.00 0.00 0.00 62 1017.4
20260508102645 14 161 0.0 0.0 0.00 0.00 0.00 63 1017.4
20260508102133 13 275 0.0 0.0 0.00 0.00 0.00 61 1017.6
20260508101624 13 200 0.0 0.0 0.00 0.00 0.00 60 1017.6
20260508101112 13 219 0.0 0.0 0.00 0.00 0.00 61 1017.7
20260508100603 13 257 0.0 0.0 0.00 0.00 0.00 62 1017.7
20260508095950 14 128 0.0 0.0 0.00 0.00 0.00 64 1017.7
20260508095442 14 190 0.0 0.0 0.00 0.00 0.00 62 1017.8
20260508094929 14 263 0.0 0.0 0.00 0.00 0.00 63 1017.8
20260508094417 15 319 0.0 0.0 0.00 0.00 0.00 63 1017.8
20260508093902 13 184 0.0 0.0 0.00 0.00 0.00 67 1017.8
20260508093618 13 158 0.0 0.0 0.00 0.00 0.00 67 1017.8
20260508093102 13 309 0.0 0.0 0.00 0.00 0.00 68 1017.8
20260508092323 13 284 0.0 0.0 0.00 0.00 0.00 69 1017.8
20260508091811 13 264 0.0 0.0 0.00 0.00 0.00 68 1017.8
20260508091240 13 265 0.0 0.0 0.00 0.00 0.00 71 1017.9
20260508090710 13 244 0.0 0.0 0.00 0.00 0.00 72 1017.9
20260508090159 13 8 0.0 0.0 0.00 0.00 0.00 77 1017.8
20260508085629 13 282 0.0 0.0 0.00 0.00 0.00 80 1017.8
20260508085116 12 328 0.0 0.0 0.00 0.00 0.00 82 1017.9
20260508084607 12 24 0.0 0.0 0.00 0.00 0.00 84 1017.9
20260508084049 11 115 0.0 0.0 0.00 0.00 0.00 85 1017.9
20260508083540 11 135 0.0 0.0 0.00 0.00 0.00 87 1017.9
20260508083025 10 136 0.0 0.0 0.00 0.00 0.00 88 1018.0
20260508082515 10 187 0.0 0.0 0.00 0.00 0.00 90 1018.0
20260508082218 10 255 0.0 0.0 0.00 0.00 0.00 90 1017.9
20260508081453 9 177 0.0 0.0 0.00 0.00 0.00 91 1018.0
20260508080942 9 189 0.0 0.0 0.00 0.00 0.00 91 1018.1
20260508080345 8 180 0.0 0.0 0.00 0.00 0.00 91 1018.1
20260508075724 8 166 0.0 0.0 0.00 0.00 0.00 91 1018.0
20260508075217 8 166 0.0 0.0 0.00 0.00 0.00 91 1018.1
20260508074659 8 166 0.0 0.0 0.00 0.00 0.00 91 1018.2
20260508074147 8 166 0.0 0.0 0.00 0.00 0.00 91 1018.2
20260508073640 8 166 0.0 0.0 0.00 0.00 0.00 91 1018.3
20260508073128 8 163 0.0 0.0 0.00 0.00 0.00 91 1018.3
20260508072613 8 167 0.0 0.0 0.00 0.00 0.00 92 1018.2
20260508072102 7 170 0.0 0.0 0.00 0.00 0.00 91 1018.3
20260508071554 7 170 0.0 0.0 0.00 0.00 0.00 91 1018.5
20260508071041 7 175 0.0 0.0 0.00 0.00 0.00 92 1018.4
20260508070754 6 175 0.0 0.0 0.00 0.00 0.00 91 1018.4
20260508065914 6 176 0.0 0.0 0.00 0.00 0.00 92 1018.3
20260508065406 5 176 0.0 0.0 0.00 0.00 0.00 92 1018.3
20260508064855 5 176 0.0 0.0 0.00 0.00 0.00 91 1018.3
20260508064534 5 176 0.0 0.0 0.00 0.00 0.00 91 1018.3
20260508063814 4 176 0.0 0.0 0.00 0.00 0.00 92 1018.3
20260508063313 4 176 0.0 0.0 0.00 0.00 0.00 92 1018.2
20260508062811 3 176 0.0 0.0 0.00 0.00 0.00 91 1018.2
20260508062310 3 176 0.0 0.0 0.00 0.00 0.00 91 1018.3
20260508061811 3 182 0.0 0.0 0.00 0.00 0.00 91 1018.2
20260508061322 3 182 0.0 0.0 0.00 0.00 0.00 91 1018.1
20260508061029 3 185 0.0 0.0 0.00 0.00 0.00 91 1018.0
20260508060310 3 185 0.0 0.0 0.00 0.00 0.00 91 1018.1
20260508055809 3 185 0.0 0.0 0.00 0.00 0.00 91 1018.0
20260508055309 3 185 0.0 0.0 0.00 0.00 0.00 91 1018.1
20260508054809 2 185 0.0 0.0 0.00 0.00 0.00 91 1018.0
20260508054307 2 185 0.0 0.0 0.00 0.00 0.00 91 1018.1
20260508053805 2 185 0.0 0.0 0.00 0.00 0.00 91 1018.1
20260508053311 2 185 0.0 0.0 0.00 0.00 0.00 91 1018.0
20260508053306 2 185 0.0 0.0 0.00 0.00 0.00 91 1018.0
20260508052307 2 185 0.0 0.0 0.00 0.00 0.00 91 1017.9
20260508051804 2 185 0.0 0.0 0.00 0.00 0.00 91 1018.0
20260508051307 2 185 0.0 0.0 0.00 0.00 0.00 91 1017.9
20260508051013 2 184 0.0 0.0 0.00 0.00 0.00 91 1017.8
20260508050900 2 185 0.0 0.0 0.00 0.00 0.00 91 1017.8
20260508045801 2 176 0.0 0.0 0.00 0.00 0.00 91 1017.8
20260508045526 2 176 0.0 0.0 0.00 0.00 0.00 91 1017.8
20260508044757 2 176 0.0 0.0 0.00 0.00 0.00 91 1017.7
20260508044256 2 177 0.0 0.0 0.00 0.00 0.00 91 1017.7
20260508044022 2 176 0.0 0.0 0.00 0.00 0.00 91 1017.7
20260508043257 2 175 0.0 0.0 0.00 0.00 0.00 91 1017.6
20260508042755 2 175 0.0 0.0 0.00 0.00 0.00 91 1017.7
20260508042531 2 175 0.0 0.0 0.00 0.00 0.00 91 1017.7
20260508041751 2 175 0.0 0.0 0.00 0.00 0.00 91 1017.6
20260508041507 2 175 0.0 0.0 0.00 0.00 0.00 91 1017.6
20260508041013 2 177 0.0 0.0 0.00 0.00 0.00 91 1017.6
20260508040246 2 177 0.0 0.0 0.00 0.00 0.00 90 1017.6
20260508035738 2 180 0.0 0.0 0.00 0.00 0.00 91 1017.7
20260508035451 2 180 0.0 0.0 0.00 0.00 0.00 91 1017.7
20260508034726 2 180 0.0 0.0 0.00 0.00 0.00 91 1017.6
20260508034438 2 180 0.0 0.0 0.00 0.00 0.00 91 1017.8
20260508033716 2 180 0.0 0.0 0.00 0.00 0.00 91 1017.7
20260508033209 2 180 0.0 0.0 0.00 0.00 0.00 91 1017.6
20260508032702 2 181 0.0 0.0 0.00 0.00 0.00 91 1017.6
20260508032156 2 181 0.0 0.0 0.00 0.00 0.00 91 1017.7
20260508031651 2 181 0.0 0.0 0.00 0.00 0.00 91 1017.6
20260508031144 2 181 0.0 0.0 0.00 0.00 0.00 90 1017.7
20260508030639 2 181 0.0 0.0 0.00 0.00 0.00 90 1017.6
20260508030414 2 184 0.0 0.0 0.00 0.00 0.00 90 1017.6
20260508025627 2 181 0.0 0.0 0.00 0.00 0.00 90 1017.6
20260508025121 2 182 0.0 0.0 0.00 0.00 0.00 90 1017.6
20260508024616 2 182 0.0 0.0 0.00 0.00 0.00 90 1017.6
20260508024109 2 183 0.0 0.0 0.00 0.00 0.00 90 1017.6
20260508023604 2 182 0.0 0.0 0.00 0.00 0.00 90 1017.6
20260508023056 3 176 0.0 0.0 0.00 0.00 0.00 90 1017.6
20260508022551 3 183 0.0 0.0 0.00 0.00 0.00 90 1017.6
20260508022044 3 182 0.0 0.0 0.00 0.00 0.00 90 1017.6
20260508021538 3 180 0.0 0.0 0.00 0.00 0.00 90 1017.5
20260508021034 3 180 0.0 0.0 0.00 0.00 0.00 90 1017.5
20260508020527 3 177 0.0 0.0 0.00 0.00 0.00 90 1017.5
20260508020020 3 180 0.0 0.0 0.00 0.00 0.00 90 1017.5
20260508015515 3 180 0.0 0.0 0.00 0.00 0.00 90 1017.5
20260508015008 3 176 0.0 0.0 0.00 0.00 0.00 90 1017.5
20260508014502 3 170 0.0 0.0 0.00 0.00 0.00 90 1017.4
20260508013956 3 172 0.0 0.0 0.00 0.00 0.00 90 1017.4
20260508013450 3 172 0.0 0.0 0.00 0.00 0.00 90 1017.5
20260508012944 3 170 0.0 0.0 0.00 0.00 0.00 90 1017.4
20260508012439 3 120 0.0 0.0 0.00 0.00 0.00 90 1017.4
20260508012155 3 119 0.0 0.0 0.00 0.00 0.00 90 1017.4
20260508011647 3 104 0.0 0.0 0.00 0.00 0.00 90 1017.4
20260508010921 3 104 0.0 0.0 0.00 0.00 0.00 90 1017.4
20260508010415 3 104 0.0 0.0 0.00 0.00 0.00 90 1017.4
20260508005909 3 104 0.0 0.0 0.00 0.00 0.00 90 1017.4
20260508005404 3 104 0.0 0.0 0.00 0.00 0.00 90 1017.4
20260508004857 3 104 0.0 0.0 0.00 0.00 0.00 90 1017.4
20260508004613 3 104 0.0 0.0 0.00 0.00 0.00 90 1017.4
20260508003846 3 104 0.0 0.0 0.00 0.00 0.00 90 1017.4
20260508003339 3 104 0.0 0.0 0.00 0.00 0.00 90 1017.4
20260508002834 3 104 0.0 0.0 0.00 0.00 0.00 90 1017.4
20260508002328 3 104 0.0 0.0 0.00 0.00 0.00 89 1017.4
20260508001826 3 104 0.0 0.0 0.00 0.00 0.00 90 1017.4
20260508001338 3 103 0.0 0.0 0.00 0.00 0.00 89 1017.5
20260508000827 3 103 0.0 0.0 0.00 0.00 0.00 89 1017.5
20260508000327 3 103 0.0 0.0 0.00 0.00 0.00 89 1017.5
20260508000305 3 95 0.0 0.0 0.00 0.00 0.00 89 1017.6
20260507235324 3 94 0.0 0.0 0.00 0.00 0.00 89 1017.6
20260507235045 3 93 0.0 0.0 0.00 0.00 0.00 89 1017.6
20260507234324 3 93 0.0 0.0 0.00 0.00 0.00 89 1017.6
20260507233823 3 93 0.0 0.0 0.00 0.00 0.00 89 1017.5
20260507233323 3 93 0.0 0.0 0.00 0.00 0.00 89 1017.5
20260507233047 3 93 0.0 0.0 0.00 0.00 0.00 89 1017.6
20260507232320 3 93 0.0 0.0 0.00 0.00 0.00 89 1017.5
20260507231810 3 93 0.0 0.0 0.00 0.00 0.00 89 1017.5
20260507231304 3 93 0.0 0.0 0.00 0.00 0.00 89 1017.5
20260507230759 3 93 0.0 0.0 0.00 0.00 0.00 89 1017.5
20260507230738 3 93 0.0 0.0 0.00 0.00 0.00 89 1017.5
20260507230011 4 93 0.0 0.0 0.00 0.00 0.00 89 1017.5
20260507225242 4 93 0.0 0.0 0.00 0.00 0.00 89 1017.5
20260507224735 4 92 0.0 0.0 0.00 0.00 0.00 89 1017.3
20260507224230 4 92 0.0 0.0 0.00 0.00 0.00 89 1017.3
20260507223729 4 92 0.0 0.0 0.00 0.00 0.00 89 1017.4
20260507223229 4 92 0.0 0.0 0.00 0.00 0.00 89 1017.3
20260507222741 4 92 0.0 0.0 0.00 0.00 0.00 89 1017.3
20260507222229 4 92 0.0 0.0 0.00 0.00 0.00 89 1017.3
20260507221729 4 92 0.0 0.0 0.00 0.00 0.00 89 1017.3
20260507221227 4 92 0.0 0.0 0.00 0.00 0.00 88 1017.3
20260507220727 5 91 0.0 0.0 0.00 0.00 0.00 88 1017.3
20260507220228 5 83 0.0 0.0 0.00 0.00 0.00 88 1017.3
20260507215726 5 83 0.0 0.0 0.00 0.00 0.00 88 1017.3
20260507215228 5 83 0.0 0.0 0.00 0.00 0.00 88 1017.2
20260507214726 5 83 0.0 0.0 0.00 0.00 0.00 88 1017.2
20260507214226 5 84 0.0 0.0 0.00 0.00 0.00 88 1017.1
20260507213726 5 83 0.0 0.0 0.00 0.00 0.00 88 1017.1
20260507213240 5 83 0.0 0.0 0.00 0.00 0.00 88 1017.1
20260507212728 5 83 0.0 0.0 0.00 0.00 0.00 88 1017.1
20260507212222 5 83 0.0 0.0 0.00 0.00 0.00 88 1017.2
20260507211723 5 83 0.0 0.0 0.00 0.00 0.00 88 1017.1
20260507211222 5 83 0.0 0.0 0.00 0.00 0.00 88 1017.1
20260507210722 5 83 0.0 0.0 0.00 0.00 0.00 87 1017.1
20260507210449 5 82 0.0 0.0 0.00 0.00 0.00 87 1017.1
20260507205723 6 83 0.0 0.0 0.00 0.00 0.00 87 1017.1
20260507205224 6 82 0.0 0.0 0.00 0.00 0.00 87 1017.0
20260507204723 6 82 0.0 0.0 0.00 0.00 0.00 87 1017.0
20260507204223 6 80 0.0 0.0 0.00 0.00 0.00 87 1017.0
20260507203718 6 80 0.0 0.0 0.00 0.00 0.00 87 1017.0
20260507203218 6 79 0.0 0.0 0.00 0.00 0.00 87 1016.7
20260507202720 6 78 0.0 0.0 0.00 0.00 0.00 86 1016.7
20260507202218 6 78 0.0 0.0 0.00 0.00 0.00 86 1016.7
20260507201718 6 78 0.0 0.0 0.00 0.00 0.00 86 1016.7
20260507201219 6 78 0.0 0.0 0.00 0.00 0.00 86 1016.7
20260507200719 7 78 0.0 0.0 0.00 0.00 0.00 86 1016.7
20260507200441 7 78 0.0 0.0 0.00 0.00 0.00 86 1016.7
20260507195733 7 78 0.0 0.0 0.00 0.00 0.00 85 1016.7
20260507195212 7 78 0.0 0.0 0.00 0.00 0.00 85 1016.6
20260507194925 7 78 0.0 0.0 0.00 0.00 0.00 85 1016.5
20260507194810 7 78 0.0 0.0 0.00 0.00 0.00 85 1016.5
20260507193932 7 78 0.0 0.0 0.00 0.00 0.00 85 1016.5
20260507193430 7 78 0.0 0.0 0.00 0.00 0.00 84 1016.4
20260507192706 8 68 0.0 0.0 0.00 0.00 0.00 84 1016.3
20260507192205 8 68 0.0 0.0 0.00 0.00 0.00 83 1016.2
20260507191703 8 58 0.0 0.0 0.00 0.00 0.00 83 1016.2
20260507191423 8 58 0.0 0.0 0.00 0.00 0.00 82 1016.2
20260507190705 9 58 0.0 0.0 0.00 0.00 0.00 81 1016.2
20260507190155 10 58 0.0 0.0 0.00 0.00 0.00 80 1016.2
20260507185649 10 57 0.0 0.0 0.00 0.00 0.00 79 1016.2